TimeMST,TemperatureF,Dew PointF,Humidity,Sea Level PressureIn,VisibilityMPH,Wind Direction,Wind SpeedMPH,Gust SpeedMPH,PrecipitationIn,Events,Conditions,WindDirDegrees,DateUTC
12:54 AM,35.1,32.0,89,30.21,10.0,Calm,Calm,-,N/A,,Clear,0,2012-10-14 07:54:00
1:54 AM,32.0,30.0,92,30.22,10.0,Calm,Calm,-,N/A,,Clear,0,2012-10-14 08:54:00
2:54 AM,32.0,28.9,88,30.21,10.0,Calm,Calm,-,N/A,,Clear,0,2012-10-14 09:54:00
3:54 AM,35.1,30.9,85,30.19,10.0,East,4.6,-,N/A,,Clear,90,2012-10-14 10:54:00
4:54 AM,46.9,35.1,63,30.17,10.0,ENE,10.4,-,N/A,,Clear,60,2012-10-14 11:54:00
5:54 AM,48.9,36.0,61,30.21,10.0,ENE,12.7,-,N/A,,Clear,60,2012-10-14 12:54:00
6:54 AM,48.0,36.0,63,30.28,10.0,ENE,11.5,-,N/A,,Clear,70,2012-10-14 13:54:00
7:54 AM,52.0,37.0,57,30.28,10.0,ENE,10.4,-,N/A,,Clear,60,2012-10-14 14:54:00
8:54 AM,55.0,37.0,51,30.30,10.0,ENE,15.0,24.2,N/A,,Clear,60,2012-10-14 15:54:00
9:54 AM,57.0,37.0,47,30.30,10.0,ENE,17.3,24.2,N/A,,Clear,60,2012-10-14 16:54:00
10:54 AM,60.1,37.9,44,30.28,10.0,NE,16.1,23.0,N/A,,Clear,50,2012-10-14 17:54:00
11:54 AM,61.0,37.9,42,30.26,10.0,ENE,12.7,19.6,N/A,,Clear,60,2012-10-14 18:54:00
12:54 PM,62.1,37.9,41,30.23,10.0,East,11.5,18.4,N/A,,Clear,80,2012-10-14 19:54:00
1:54 PM,64.9,37.9,37,30.20,10.0,East,8.1,-,N/A,,Clear,90,2012-10-14 20:54:00
2:54 PM,66.0,37.0,34,30.20,10.0,NE,11.5,-,N/A,,Clear,40,2012-10-14 21:54:00
3:54 PM,64.9,37.0,36,30.18,10.0,NE,9.2,16.1,N/A,,Clear,50,2012-10-14 22:54:00
4:54 PM,63.0,36.0,37,30.14,10.0,ENE,10.4,-,N/A,,Clear,60,2012-10-14 23:54:00
5:54 PM,57.9,36.0,44,30.14,10.0,ENE,8.1,-,N/A,,Clear,60,2012-10-15 00:54:00
6:54 PM,46.0,35.1,66,30.21,10.0,Calm,Calm,-,N/A,,Clear,0,2012-10-15 01:54:00
7:54 PM,41.0,34.0,76,30.21,10.0,Calm,Calm,-,N/A,,Clear,0,2012-10-15 02:54:00
8:54 PM,39.9,34.0,79,30.20,10.0,Calm,Calm,-,N/A,,Clear,0,2012-10-15 03:54:00
9:54 PM,39.0,33.1,79,30.22,10.0,NE,5.8,-,N/A,,Clear,40,2012-10-15 04:54:00
10:54 PM,36.0,32.0,86,30.22,10.0,ENE,4.6,-,N/A,,Clear,60,2012-10-15 05:54:00
11:54 PM,36.0,32.0,86,30.19,10.0,Calm,Calm,-,N/A,,Clear,0,2012-10-15 06:54:00